[ hide orbit diagram ]
For accurate long-term ephemerides, please instead use our Horizons system.This orbit viewer was implemented using two-body methods, and hence should not be used for determining accurate long-term trajectories (over several years or decades) or planetary encounter circumstances.
Orbital Elements at Epoch 2459000.5 (2020-May-31.0) TDB
Reference: JPL 17 (heliocentric ecliptic J2000)
Element | Value | Uncertainty (1-sigma) | Units |
e | .2210872386301405 | 4.1914e-08 | |
a | 2.349274995904155 | 1.0117e-08 | au |
q | 1.829880274276871 | 1.007e-07 | au |
i | 3.599483023317692 | 4.1135e-06 | deg |
node | 60.51993936311735 | 7.4914e-05 | deg |
peri | 329.6877669260693 | 7.5492e-05 | deg |
M | 182.7023099862897 | 1.1165e-05 | deg |
tp | 2459648.238614416132 (2022-Mar-09.73861442) | 4.3646e-05 | TDB |
period | 1315.222444081337 3.60 | 8.4959e-06 2.326e-08 | d yr |
n | .2737179567000581 | 1.7681e-09 | deg/d |
Q | 2.868669717531439 | 1.2354e-08 | au |
|
| | Orbit Determination Parameters
Additional Information
|
[ show covariance matrix ]
Physical Parameter Table
Parameter |
Symbol |
Value |
Units |
Sigma |
Reference |
Notes |
absolute magnitude |
H |
16.48 |
|
n/a |
E2021B55 |
|
|
117968 (9564 P-L) Discovered 1960-Oct-17 by van Houten, C. J., van Houten-Groeneveld, I., Gehrels, T. at Palomar |
Reference: 20051019/Numbers.arc | Last Updated: 2005-10-26 |
|
[ hide close-approach data ]
Close-Approach Data ...sorted by Date/Time (TDB)
|
Date/Time (TDB) |
Time Uncertainty (days_HH:MM) |
Body |
Nominal Distance (au) |
Minimum Distance (au) |
Maximum Distance (au) |
V-relative (km/s) |
V-infinity (km/s) |
JD (TDB) |
Time Uncertainty (minutes) |
Semi-major axis (km) |
Semi-minor axis (km) |
range-LOV angle (deg) |
N-sigma |
BP |
Orbit Ref. |
Reference |
Modified |
1906-Apr-01 15:34 |
< 00:01 |
Vesta |
0.0404413632375419 |
0.0404383770820535 |
0.0404443506902623 |
6.13537634204839 |
6.13537586250533 |
2417302.148665865 |
0.639186089533858 |
416.049688544757 |
55.4037829001744 |
70.4398945645341 |
102822.597981093 |
T |
17 |
CATAB v2.0f-lin.ifort 2020-Nov-12 18:15:03 |
2020-Nov-12 18:15 |
|
|